#datetime,building,power
2022-09-16T00:01:00,pth,3.60
2022-09-16T00:03:00,pth,2.40
2022-09-16T00:04:00,pth,1.20
2022-09-16T00:06:00,pth,2.40
2022-09-16T00:08:00,pth,2.40
2022-09-16T00:10:00,pth,2.40
2022-09-16T00:12:00,pth,2.40
2022-09-16T00:14:00,pth,2.40
2022-09-16T00:17:00,pth,2.40
2022-09-16T00:18:00,pth,1.20
2022-09-16T00:20:00,pth,2.40
2022-09-16T00:22:00,pth,2.40
2022-09-16T00:23:00,pth,1.20
2022-09-16T00:25:00,pth,2.40
2022-09-16T00:28:00,pth,2.40
2022-09-16T00:29:00,pth,1.20
2022-09-16T00:31:00,pth,1.20
2022-09-16T00:32:00,pth,1.20
2022-09-16T00:33:00,pth,1.20
2022-09-16T00:34:00,pth,1.20
2022-09-16T00:36:00,pth,2.40
2022-09-16T00:38:00,pth,1.20
2022-09-16T00:39:00,pth,1.20
2022-09-16T00:41:00,pth,2.40
2022-09-16T00:43:00,pth,1.20
2022-09-16T00:45:00,pth,2.40
2022-09-16T00:47:00,pth,2.40
2022-09-16T00:48:00,pth,1.20
2022-09-16T00:50:00,pth,2.40
2022-09-16T00:51:00,pth,1.20
2022-09-16T00:53:00,pth,1.20
2022-09-16T00:54:00,pth,1.20
2022-09-16T00:55:00,pth,1.20
2022-09-16T00:56:00,pth,2.40
2022-09-16T00:57:00,pth,1.20
2022-09-16T00:58:00,pth,1.20
2022-09-16T01:00:00,pth,2.40
2022-09-16T01:02:00,pth,2.40
2022-09-16T01:04:00,pth,2.40
2022-09-16T01:05:00,pth,1.20
2022-09-16T01:07:00,pth,2.40
2022-09-16T01:09:00,pth,2.40
2022-09-16T01:11:00,pth,1.20
2022-09-16T01:12:00,pth,1.20
2022-09-16T01:13:00,pth,1.20
2022-09-16T01:14:00,pth,1.20
2022-09-16T01:16:00,pth,2.40
2022-09-16T01:18:00,pth,2.40
2022-09-16T01:20:00,pth,1.20
2022-09-16T01:21:00,pth,1.20
2022-09-16T01:23:00,pth,2.40
2022-09-16T01:25:00,pth,2.40
2022-09-16T01:27:00,pth,2.40
2022-09-16T01:29:00,pth,1.20
2022-09-16T01:30:00,pth,1.20
2022-09-16T01:32:00,pth,2.40
2022-09-16T01:34:00,pth,2.40
2022-09-16T01:36:00,pth,2.40
2022-09-16T01:38:00,pth,2.40
2022-09-16T01:39:00,pth,1.20
2022-09-16T01:41:00,pth,2.40
2022-09-16T01:42:00,pth,1.20
2022-09-16T01:44:00,pth,2.40
2022-09-16T01:45:00,pth,1.20
2022-09-16T01:47:00,pth,2.40
2022-09-16T01:49:00,pth,2.40
2022-09-16T01:51:00,pth,2.40
2022-09-16T01:54:00,pth,2.40
2022-09-16T01:55:00,pth,1.20
2022-09-16T01:56:00,pth,1.20
2022-09-16T01:58:00,pth,1.20
2022-09-16T02:00:00,pth,2.40
2022-09-16T02:02:00,pth,1.20
2022-09-16T02:04:00,pth,2.40
2022-09-16T02:06:00,pth,2.40
2022-09-16T02:08:00,pth,1.20
2022-09-16T02:10:00,pth,2.40
2022-09-16T02:12:00,pth,2.40
2022-09-16T02:14:00,pth,2.40
2022-09-16T02:17:00,pth,2.40
2022-09-16T02:18:00,pth,1.20
2022-09-16T02:19:00,pth,1.20
2022-09-16T02:21:00,pth,1.20
2022-09-16T02:22:00,pth,1.20
2022-09-16T02:24:00,pth,1.20
2022-09-16T02:26:00,pth,2.40
2022-09-16T02:28:00,pth,2.40
2022-09-16T02:30:00,pth,1.20
2022-09-16T02:32:00,pth,2.40
2022-09-16T02:34:00,pth,2.40
2022-09-16T02:36:00,pth,1.20
2022-09-16T02:38:00,pth,2.40
2022-09-16T02:39:00,pth,1.20
2022-09-16T02:41:00,pth,2.40
2022-09-16T02:43:00,pth,2.40
2022-09-16T02:45:00,pth,2.40
2022-09-16T02:48:00,pth,2.40
2022-09-16T02:49:00,pth,1.20
2022-09-16T02:51:00,pth,2.40
2022-09-16T02:53:00,pth,2.40
2022-09-16T02:54:00,pth,1.20
2022-09-16T02:56:00,pth,1.20
2022-09-16T02:57:00,pth,1.20
2022-09-16T02:58:00,pth,1.20
2022-09-16T03:00:00,pth,2.40
2022-09-16T03:03:00,pth,2.40
2022-09-16T03:05:00,pth,2.40
2022-09-16T03:06:00,pth,1.20
2022-09-16T03:08:00,pth,2.40
2022-09-16T03:10:00,pth,1.20
2022-09-16T03:12:00,pth,2.40
2022-09-16T03:14:00,pth,2.40
2022-09-16T03:16:00,pth,2.40
2022-09-16T03:18:00,pth,1.20
2022-09-16T03:19:00,pth,1.20
2022-09-16T03:21:00,pth,2.40
2022-09-16T03:22:00,pth,1.20
2022-09-16T03:24:00,pth,2.40
2022-09-16T03:26:00,pth,2.40
2022-09-16T03:28:00,pth,2.40
2022-09-16T03:30:00,pth,2.40
2022-09-16T03:32:00,pth,2.40
2022-09-16T03:34:00,pth,1.20
2022-09-16T03:36:00,pth,2.40
2022-09-16T03:37:00,pth,1.20
2022-09-16T03:39:00,pth,2.40
2022-09-16T03:41:00,pth,2.40
2022-09-16T03:43:00,pth,1.20
2022-09-16T03:44:00,pth,1.20
2022-09-16T03:46:00,pth,2.40
2022-09-16T03:47:00,pth,1.20
2022-09-16T03:49:00,pth,1.20
2022-09-16T03:50:00,pth,1.20
2022-09-16T03:52:00,pth,2.40
2022-09-16T03:53:00,pth,1.20
2022-09-16T03:55:00,pth,1.20
2022-09-16T03:56:00,pth,1.20
2022-09-16T03:58:00,pth,2.40
2022-09-16T04:00:00,pth,2.40
2022-09-16T04:02:00,pth,2.40
2022-09-16T04:04:00,pth,2.40
2022-09-16T04:06:00,pth,2.40
2022-09-16T04:09:00,pth,2.40
2022-09-16T04:11:00,pth,2.40
2022-09-16T04:13:00,pth,2.40
2022-09-16T04:14:00,pth,1.20
2022-09-16T04:15:00,pth,1.20
2022-09-16T04:17:00,pth,2.40
2022-09-16T04:19:00,pth,1.20
2022-09-16T04:20:00,pth,1.20
2022-09-16T04:22:00,pth,2.40
2022-09-16T04:24:00,pth,2.40
2022-09-16T04:26:00,pth,1.20
2022-09-16T04:28:00,pth,2.40
2022-09-16T04:29:00,pth,1.20
2022-09-16T04:31:00,pth,2.40
2022-09-16T04:33:00,pth,1.20
2022-09-16T04:35:00,pth,2.40
2022-09-16T04:37:00,pth,2.40
2022-09-16T04:39:00,pth,1.20
2022-09-16T04:41:00,pth,2.40
2022-09-16T04:43:00,pth,2.40
2022-09-16T04:45:00,pth,1.20
2022-09-16T04:46:00,pth,1.20
2022-09-16T04:48:00,pth,2.40
2022-09-16T04:50:00,pth,2.40
2022-09-16T04:52:00,pth,2.40
2022-09-16T04:53:00,pth,1.20
2022-09-16T04:54:00,pth,1.20
2022-09-16T04:56:00,pth,2.40
2022-09-16T04:58:00,pth,2.40
2022-09-16T05:00:00,pth,1.20
2022-09-16T05:02:00,pth,2.40
2022-09-16T05:04:00,pth,2.40
2022-09-16T05:06:00,pth,2.40
2022-09-16T05:08:00,pth,1.20
2022-09-16T05:10:00,pth,2.40
2022-09-16T05:11:00,pth,1.20
2022-09-16T05:13:00,pth,2.40
2022-09-16T05:14:00,pth,1.20
2022-09-16T05:16:00,pth,2.40
2022-09-16T05:18:00,pth,2.40
2022-09-16T05:20:00,pth,2.40
2022-09-16T05:22:00,pth,1.20
2022-09-16T05:24:00,pth,2.40
2022-09-16T05:25:00,pth,1.20
2022-09-16T05:26:00,pth,1.20
2022-09-16T05:28:00,pth,2.40
2022-09-16T05:29:00,pth,1.20
2022-09-16T05:31:00,pth,2.40
2022-09-16T05:33:00,pth,2.40
2022-09-16T05:35:00,pth,1.20
2022-09-16T05:37:00,pth,2.40
2022-09-16T05:38:00,pth,1.20
2022-09-16T05:39:00,pth,1.20
2022-09-16T05:41:00,pth,2.40
2022-09-16T05:44:00,pth,2.40
2022-09-16T05:45:00,pth,1.20
2022-09-16T05:47:00,pth,2.40
2022-09-16T05:50:00,pth,2.40
2022-09-16T05:51:00,pth,1.20
2022-09-16T05:53:00,pth,2.40
2022-09-16T05:54:00,pth,1.20
2022-09-16T05:56:00,pth,1.20
2022-09-16T05:58:00,pth,2.40
2022-09-16T06:00:00,pth,2.40
2022-09-16T06:01:00,pth,1.20
2022-09-16T06:03:00,pth,1.20
2022-09-16T06:04:00,pth,1.20
2022-09-16T06:06:00,pth,2.40
2022-09-16T06:08:00,pth,2.40
2022-09-16T06:10:00,pth,2.40
2022-09-16T06:12:00,pth,2.40
2022-09-16T06:14:00,pth,2.40
2022-09-16T06:15:00,pth,1.20
2022-09-16T06:17:00,pth,2.40
2022-09-16T06:19:00,pth,2.40
2022-09-16T06:21:00,pth,1.20
2022-09-16T06:22:00,pth,1.20
2022-09-16T06:24:00,pth,3.60
2022-09-16T06:25:00,pth,1.20
2022-09-16T06:27:00,pth,2.40
2022-09-16T06:28:00,pth,1.20
2022-09-16T06:30:00,pth,2.40
2022-09-16T06:31:00,pth,1.20
2022-09-16T06:33:00,pth,2.40
2022-09-16T06:35:00,pth,3.60
2022-09-16T06:36:00,pth,1.20
2022-09-16T06:38:00,pth,2.40
2022-09-16T06:39:00,pth,1.20
2022-09-16T06:40:00,pth,1.20
2022-09-16T06:41:00,pth,1.20
2022-09-16T06:43:00,pth,2.40
2022-09-16T06:46:00,pth,2.40
2022-09-16T06:48:00,pth,2.40
2022-09-16T06:49:00,pth,1.20
2022-09-16T06:51:00,pth,2.40
2022-09-16T06:53:00,pth,2.40
2022-09-16T06:56:00,pth,2.40
2022-09-16T06:57:00,pth,1.20
2022-09-16T06:59:00,pth,2.40
2022-09-16T07:01:00,pth,2.40
2022-09-16T07:02:00,pth,2.40
2022-09-16T07:04:00,pth,3.60
2022-09-16T07:05:00,pth,1.20
2022-09-16T07:07:00,pth,14.40
2022-09-16T07:09:00,pth,14.40
2022-09-16T07:11:00,pth,15.60
2022-09-16T07:12:00,pth,7.20
2022-09-16T07:14:00,pth,14.40
2022-09-16T07:15:00,pth,7.20
2022-09-16T07:17:00,pth,14.40
2022-09-16T07:19:00,pth,14.40
2022-09-16T07:21:00,pth,14.40
2022-09-16T07:22:00,pth,7.20
2022-09-16T07:24:00,pth,14.40
2022-09-16T07:25:00,pth,7.20
2022-09-16T07:26:00,pth,7.20
2022-09-16T07:28:00,pth,14.40
2022-09-16T07:30:00,pth,14.40
2022-09-16T07:32:00,pth,13.20
2022-09-16T07:33:00,pth,7.20
2022-09-16T07:35:00,pth,14.40
2022-09-16T07:36:00,pth,7.20
2022-09-16T07:38:00,pth,14.40
2022-09-16T07:40:00,pth,14.40
2022-09-16T07:42:00,pth,10.80
2022-09-16T07:43:00,pth,2.40
2022-09-16T07:44:00,pth,7.20
2022-09-16T07:46:00,pth,14.40
2022-09-16T07:48:00,pth,7.20
2022-09-16T07:49:00,pth,2.40
2022-09-16T07:51:00,pth,3.60
2022-09-16T07:52:00,pth,1.20
2022-09-16T07:53:00,pth,1.20
2022-09-16T07:54:00,pth,2.40
2022-09-16T07:56:00,pth,3.60
2022-09-16T07:58:00,pth,3.60
2022-09-16T08:00:00,pth,2.40
2022-09-16T08:01:00,pth,2.40
2022-09-16T08:02:00,pth,1.20
2022-09-16T08:04:00,pth,3.60
2022-09-16T08:06:00,pth,3.60
2022-09-16T08:07:00,pth,1.20
2022-09-16T08:09:00,pth,3.60
2022-09-16T08:10:00,pth,1.20
2022-09-16T08:12:00,pth,3.60
2022-09-16T08:14:00,pth,3.60
2022-09-16T08:15:00,pth,2.40
2022-09-16T08:17:00,pth,3.60
2022-09-16T08:19:00,pth,2.40
2022-09-16T08:21:00,pth,3.60
2022-09-16T08:23:00,pth,3.60
2022-09-16T08:24:00,pth,1.20
2022-09-16T08:25:00,pth,2.40
2022-09-16T08:27:00,pth,2.40
2022-09-16T08:29:00,pth,3.60
2022-09-16T08:30:00,pth,1.20
2022-09-16T08:32:00,pth,3.60
2022-09-16T08:33:00,pth,1.20
2022-09-16T08:35:00,pth,3.60
2022-09-16T08:37:00,pth,2.40
2022-09-16T08:39:00,pth,3.60
2022-09-16T08:41:00,pth,3.60
2022-09-16T08:43:00,pth,2.40
2022-09-16T08:44:00,pth,2.40
2022-09-16T08:46:00,pth,2.40
2022-09-16T08:48:00,pth,3.60
2022-09-16T08:50:00,pth,3.60
2022-09-16T08:52:00,pth,3.60
2022-09-16T08:54:00,pth,3.60
2022-09-16T08:55:00,pth,1.20
2022-09-16T08:57:00,pth,3.60
2022-09-16T08:59:00,pth,3.60
2022-09-16T09:01:00,pth,3.60
2022-09-16T09:02:00,pth,1.20
2022-09-16T09:03:00,pth,2.40
2022-09-16T09:05:00,pth,2.40
2022-09-16T09:07:00,pth,3.60
2022-09-16T09:08:00,pth,1.20
2022-09-16T09:09:00,pth,2.40
2022-09-16T09:11:00,pth,2.40
2022-09-16T09:13:00,pth,3.60
2022-09-16T09:14:00,pth,1.20
2022-09-16T09:15:00,pth,2.40
2022-09-16T09:17:00,pth,2.40
2022-09-16T09:19:00,pth,3.60
2022-09-16T09:21:00,pth,3.60
2022-09-16T09:23:00,pth,3.60
2022-09-16T09:24:00,pth,1.20
2022-09-16T09:27:00,pth,3.60
2022-09-16T09:28:00,pth,3.60
2022-09-16T09:30:00,pth,3.60
2022-09-16T09:32:00,pth,2.40
2022-09-16T09:34:00,pth,3.60
2022-09-16T09:36:00,pth,2.40
2022-09-16T09:38:00,pth,3.60
2022-09-16T09:39:00,pth,1.20
2022-09-16T09:41:00,pth,2.40
2022-09-16T09:43:00,pth,3.60
2022-09-16T09:45:00,pth,2.40
2022-09-16T09:47:00,pth,2.40
2022-09-16T09:49:00,pth,3.60
2022-09-16T09:50:00,pth,1.20
2022-09-16T09:52:00,pth,2.40
2022-09-16T09:53:00,pth,2.40
2022-09-16T09:55:00,pth,2.40
2022-09-16T09:57:00,pth,3.60
2022-09-16T09:59:00,pth,3.60
2022-09-16T10:01:00,pth,2.40
2022-09-16T10:03:00,pth,3.60
2022-09-16T10:04:00,pth,1.20
2022-09-16T10:06:00,pth,3.60
2022-09-16T10:07:00,pth,1.20
2022-09-16T10:08:00,pth,2.40
2022-09-16T10:10:00,pth,2.40
2022-09-16T10:12:00,pth,3.60
2022-09-16T10:13:00,pth,1.20
2022-09-16T10:14:00,pth,2.40
2022-09-16T10:16:00,pth,2.40
2022-09-16T10:18:00,pth,2.40
2022-09-16T10:20:00,pth,2.40
2022-09-16T10:22:00,pth,3.60
2022-09-16T10:23:00,pth,1.20
2022-09-16T10:25:00,pth,2.40
2022-09-16T10:26:00,pth,1.20
2022-09-16T10:28:00,pth,2.40
2022-09-16T10:29:00,pth,2.40
2022-09-16T10:31:00,pth,2.40
2022-09-16T10:32:00,pth,1.20
2022-09-16T10:34:00,pth,3.60
2022-09-16T10:35:00,pth,2.40
2022-09-16T10:37:00,pth,3.60
2022-09-16T10:38:00,pth,1.20
2022-09-16T10:40:00,pth,3.60
2022-09-16T10:42:00,pth,3.60
2022-09-16T10:43:00,pth,2.40
2022-09-16T10:44:00,pth,1.20
2022-09-16T10:46:00,pth,3.60
2022-09-16T10:48:00,pth,3.60
2022-09-16T10:49:00,pth,1.20
2022-09-16T10:50:00,pth,2.40
2022-09-16T10:52:00,pth,2.40
2022-09-16T10:53:00,pth,2.40
2022-09-16T10:55:00,pth,3.60
2022-09-16T10:57:00,pth,2.40
2022-09-16T10:59:00,pth,3.60
2022-09-16T11:01:00,pth,2.40
2022-09-16T11:03:00,pth,3.60
2022-09-16T11:04:00,pth,1.20
2022-09-16T11:06:00,pth,3.60
2022-09-16T11:08:00,pth,2.40
2022-09-16T11:09:00,pth,2.40
2022-09-16T11:10:00,pth,1.20
2022-09-16T11:11:00,pth,2.40
2022-09-16T11:13:00,pth,2.40
2022-09-16T11:15:00,pth,3.60
2022-09-16T11:17:00,pth,3.60
2022-09-16T11:19:00,pth,3.60
2022-09-16T11:21:00,pth,3.60
2022-09-16T11:22:00,pth,1.20
2022-09-16T11:24:00,pth,3.60
2022-09-16T11:25:00,pth,1.20
2022-09-16T11:27:00,pth,3.60
2022-09-16T11:28:00,pth,1.20
2022-09-16T11:30:00,pth,3.60
2022-09-16T11:32:00,pth,2.40
2022-09-16T11:33:00,pth,1.20
2022-09-16T11:34:00,pth,1.20
2022-09-16T11:36:00,pth,3.60
2022-09-16T11:38:00,pth,2.40
2022-09-16T11:39:00,pth,1.20
2022-09-16T11:41:00,pth,3.60
2022-09-16T11:42:00,pth,1.20
2022-09-16T11:44:00,pth,3.60
2022-09-16T11:46:00,pth,3.60
2022-09-16T11:47:00,pth,1.20
2022-09-16T11:49:00,pth,2.40
2022-09-16T11:50:00,pth,2.40
2022-09-16T11:51:00,pth,1.20
2022-09-16T11:53:00,pth,2.40
2022-09-16T11:54:00,pth,2.40
2022-09-16T11:56:00,pth,2.40
2022-09-16T11:58:00,pth,2.40
2022-09-16T11:59:00,pth,1.20
2022-09-16T12:01:00,pth,3.60
2022-09-16T12:02:00,pth,1.20
2022-09-16T12:04:00,pth,2.40
2022-09-16T12:05:00,pth,1.20
2022-09-16T12:07:00,pth,2.40
2022-09-16T12:09:00,pth,3.60
2022-09-16T12:10:00,pth,1.20
2022-09-16T12:12:00,pth,2.40
2022-09-16T12:14:00,pth,2.40
2022-09-16T12:16:00,pth,3.60
2022-09-16T12:17:00,pth,1.20
2022-09-16T12:18:00,pth,1.20
2022-09-16T12:19:00,pth,2.40
2022-09-16T12:20:00,pth,1.20
2022-09-16T12:22:00,pth,3.60
2022-09-16T12:24:00,pth,2.40
2022-09-16T12:25:00,pth,2.40
2022-09-16T12:26:00,pth,1.20
2022-09-16T12:28:00,pth,3.60
2022-09-16T12:29:00,pth,1.20
2022-09-16T12:31:00,pth,2.40
2022-09-16T12:33:00,pth,3.60
2022-09-16T12:34:00,pth,1.20
2022-09-16T12:36:00,pth,3.60
2022-09-16T12:38:00,pth,2.40
2022-09-16T12:39:00,pth,2.40
2022-09-16T12:41:00,pth,3.60
2022-09-16T12:43:00,pth,3.60
2022-09-16T12:45:00,pth,3.60
2022-09-16T12:47:00,pth,3.60
2022-09-16T12:49:00,pth,3.60
2022-09-16T12:51:00,pth,3.60
2022-09-16T12:52:00,pth,1.20
2022-09-16T12:54:00,pth,3.60
2022-09-16T12:55:00,pth,1.20
2022-09-16T12:57:00,pth,3.60
2022-09-16T12:58:00,pth,1.20
2022-09-16T12:59:00,pth,1.20
2022-09-16T13:00:00,pth,1.20
2022-09-16T13:02:00,pth,3.60
2022-09-16T13:04:00,pth,3.60
2022-09-16T13:05:00,pth,2.40
2022-09-16T13:07:00,pth,3.60
2022-09-16T13:09:00,pth,3.60
2022-09-16T13:10:00,pth,1.20
2022-09-16T13:12:00,pth,2.40
2022-09-16T13:13:00,pth,2.40
2022-09-16T13:15:00,pth,2.40
2022-09-16T13:17:00,pth,3.60
2022-09-16T13:19:00,pth,2.40
2022-09-16T13:20:00,pth,1.20
2022-09-16T13:22:00,pth,2.40
2022-09-16T13:24:00,pth,2.40
2022-09-16T13:26:00,pth,2.40
2022-09-16T13:27:00,pth,1.20
2022-09-16T13:28:00,pth,1.20
2022-09-16T13:30:00,pth,2.40
2022-09-16T13:32:00,pth,2.40
2022-09-16T13:34:00,pth,2.40
2022-09-16T13:37:00,pth,2.40
2022-09-16T13:38:00,pth,2.40
2022-09-16T13:39:00,pth,1.20
2022-09-16T13:41:00,pth,2.40
2022-09-16T13:42:00,pth,1.20
2022-09-16T13:44:00,pth,2.40
2022-09-16T13:46:00,pth,1.20
2022-09-16T13:48:00,pth,2.40
2022-09-16T13:50:00,pth,2.40
2022-09-16T13:51:00,pth,1.20
2022-09-16T13:53:00,pth,2.40
2022-09-16T13:54:00,pth,3.60
2022-09-16T13:55:00,pth,2.40
2022-09-16T13:57:00,pth,7.20
2022-09-16T13:59:00,pth,7.20
2022-09-16T14:01:00,pth,7.20
2022-09-16T14:02:00,pth,3.60
2022-09-16T14:04:00,pth,3.60
2022-09-16T14:05:00,pth,1.20
2022-09-16T14:07:00,pth,2.40
2022-09-16T14:08:00,pth,1.20
2022-09-16T14:10:00,pth,2.40
2022-09-16T14:11:00,pth,1.20
2022-09-16T14:13:00,pth,2.40
2022-09-16T14:14:00,pth,1.20
2022-09-16T14:16:00,pth,3.60
2022-09-16T14:18:00,pth,1.20
2022-09-16T14:19:00,pth,2.40
2022-09-16T14:21:00,pth,2.40
2022-09-16T14:22:00,pth,1.20
2022-09-16T14:24:00,pth,1.20
2022-09-16T14:25:00,pth,1.20
2022-09-16T14:26:00,pth,1.20
2022-09-16T14:28:00,pth,2.40
2022-09-16T14:29:00,pth,1.20
2022-09-16T14:31:00,pth,2.40
2022-09-16T14:33:00,pth,2.40
2022-09-16T14:35:00,pth,2.40
2022-09-16T14:36:00,pth,1.20
2022-09-16T14:38:00,pth,2.40
2022-09-16T14:39:00,pth,2.40
2022-09-16T14:41:00,pth,2.40
2022-09-16T14:42:00,pth,1.20
2022-09-16T14:44:00,pth,2.40
2022-09-16T14:46:00,pth,2.40
2022-09-16T14:48:00,pth,2.40
2022-09-16T14:50:00,pth,3.60
2022-09-16T14:52:00,pth,2.40
2022-09-16T14:54:00,pth,2.40
2022-09-16T14:55:00,pth,1.20
2022-09-16T14:57:00,pth,2.40
2022-09-16T14:58:00,pth,1.20
2022-09-16T15:00:00,pth,2.40
2022-09-16T15:02:00,pth,3.60
2022-09-16T15:04:00,pth,3.60
2022-09-16T15:05:00,pth,1.20
2022-09-16T15:07:00,pth,2.40
2022-09-16T15:08:00,pth,2.40
2022-09-16T15:10:00,pth,2.40
2022-09-16T15:12:00,pth,2.40
2022-09-16T15:14:00,pth,2.40
2022-09-16T15:16:00,pth,2.40
2022-09-16T15:18:00,pth,2.40
2022-09-16T15:20:00,pth,1.20
2022-09-16T15:21:00,pth,1.20
2022-09-16T15:22:00,pth,1.20
2022-09-16T15:24:00,pth,1.20
2022-09-16T15:26:00,pth,2.40
2022-09-16T15:27:00,pth,1.20
2022-09-16T15:29:00,pth,2.40
2022-09-16T15:30:00,pth,1.20
2022-09-16T15:32:00,pth,2.40
2022-09-16T15:35:00,pth,2.40
2022-09-16T15:37:00,pth,2.40
2022-09-16T15:39:00,pth,2.40
2022-09-16T15:40:00,pth,1.20
2022-09-16T15:42:00,pth,1.20
2022-09-16T15:44:00,pth,2.40
2022-09-16T15:46:00,pth,2.40
2022-09-16T15:48:00,pth,1.20
2022-09-16T15:50:00,pth,2.40
2022-09-16T15:52:00,pth,2.40
2022-09-16T15:54:00,pth,2.40
2022-09-16T15:56:00,pth,2.40
2022-09-16T15:57:00,pth,1.20
2022-09-16T15:59:00,pth,1.20
2022-09-16T16:01:00,pth,2.40
2022-09-16T16:02:00,pth,1.20
2022-09-16T16:03:00,pth,1.20
2022-09-16T16:05:00,pth,1.20
2022-09-16T16:06:00,pth,1.20
2022-09-16T16:08:00,pth,1.20
2022-09-16T16:10:00,pth,2.40
2022-09-16T16:11:00,pth,1.20
2022-09-16T16:12:00,pth,1.20
2022-09-16T16:14:00,pth,3.60
2022-09-16T16:16:00,pth,1.20
2022-09-16T16:18:00,pth,2.40
2022-09-16T16:19:00,pth,1.20
2022-09-16T16:21:00,pth,3.60
2022-09-16T16:23:00,pth,2.40
2022-09-16T16:24:00,pth,1.20
2022-09-16T16:26:00,pth,2.40
2022-09-16T16:28:00,pth,2.40
2022-09-16T16:30:00,pth,2.40
2022-09-16T16:31:00,pth,1.20
2022-09-16T16:32:00,pth,1.20
2022-09-16T16:34:00,pth,1.20
2022-09-16T16:36:00,pth,2.40
2022-09-16T16:39:00,pth,2.40
2022-09-16T16:40:00,pth,1.20
2022-09-16T16:42:00,pth,1.20
2022-09-16T16:43:00,pth,1.20
2022-09-16T16:45:00,pth,1.20
2022-09-16T16:47:00,pth,3.60
2022-09-16T16:48:00,pth,2.40
2022-09-16T16:50:00,pth,3.60
2022-09-16T16:51:00,pth,1.20
2022-09-16T16:53:00,pth,2.40
2022-09-16T16:56:00,pth,2.40
2022-09-16T16:57:00,pth,1.20
2022-09-16T16:58:00,pth,1.20
2022-09-16T17:00:00,pth,2.40
2022-09-16T17:02:00,pth,1.20
2022-09-16T17:03:00,pth,1.20
2022-09-16T17:05:00,pth,2.40
2022-09-16T17:07:00,pth,2.40
2022-09-16T17:10:00,pth,2.40
2022-09-16T17:12:00,pth,2.40
2022-09-16T17:13:00,pth,1.20
2022-09-16T17:16:00,pth,2.40
2022-09-16T17:19:00,pth,1.20
2022-09-16T17:20:00,pth,1.20
2022-09-16T17:22:00,pth,1.20
2022-09-16T17:24:00,pth,1.20
2022-09-16T17:26:00,pth,2.40
2022-09-16T17:28:00,pth,1.20
2022-09-16T17:30:00,pth,1.20
2022-09-16T17:32:00,pth,1.20
2022-09-16T17:34:00,pth,1.20
2022-09-16T17:36:00,pth,1.20
2022-09-16T17:38:00,pth,2.40
2022-09-16T17:41:00,pth,2.40
2022-09-16T17:43:00,pth,1.20
2022-09-16T17:45:00,pth,2.40
2022-09-16T17:47:00,pth,1.20
2022-09-16T17:48:00,pth,1.20
2022-09-16T17:49:00,pth,1.20
2022-09-16T17:51:00,pth,1.20
2022-09-16T17:52:00,pth,1.20
2022-09-16T17:54:00,pth,2.40
2022-09-16T17:56:00,pth,1.20
2022-09-16T17:58:00,pth,2.40
2022-09-16T18:00:00,pth,2.40
2022-09-16T18:01:00,pth,1.20
2022-09-16T18:02:00,pth,1.20
2022-09-16T18:04:00,pth,1.20
2022-09-16T18:06:00,pth,2.40
2022-09-16T18:08:00,pth,1.20
2022-09-16T18:10:00,pth,2.40
2022-09-16T18:11:00,pth,1.20
2022-09-16T18:13:00,pth,1.20
2022-09-16T18:16:00,pth,2.40
2022-09-16T18:18:00,pth,1.20
2022-09-16T18:20:00,pth,1.20
2022-09-16T18:22:00,pth,1.20
2022-09-16T18:24:00,pth,1.20
2022-09-16T18:25:00,pth,1.20
2022-09-16T18:28:00,pth,2.40
2022-09-16T18:30:00,pth,1.20
2022-09-16T18:32:00,pth,1.20
2022-09-16T18:33:00,pth,1.20
2022-09-16T18:35:00,pth,1.20
2022-09-16T18:37:00,pth,2.40
2022-09-16T18:39:00,pth,1.20
2022-09-16T18:40:00,pth,1.20
2022-09-16T18:42:00,pth,1.20
2022-09-16T18:43:00,pth,1.20
2022-09-16T18:44:00,pth,1.20
2022-09-16T18:46:00,pth,1.20
2022-09-16T18:47:00,pth,1.20
2022-09-16T18:49:00,pth,1.20
2022-09-16T18:51:00,pth,1.20
2022-09-16T18:52:00,pth,1.20
2022-09-16T18:53:00,pth,1.20
2022-09-16T18:55:00,pth,1.20
2022-09-16T18:57:00,pth,2.40
2022-09-16T18:59:00,pth,1.20
2022-09-16T19:00:00,pth,1.20
2022-09-16T19:02:00,pth,2.40
2022-09-16T19:04:00,pth,2.40
2022-09-16T19:05:00,pth,1.20
2022-09-16T19:07:00,pth,2.40
2022-09-16T19:09:00,pth,2.40
2022-09-16T19:10:00,pth,1.20
2022-09-16T19:12:00,pth,2.40
2022-09-16T19:14:00,pth,2.40
2022-09-16T19:16:00,pth,3.60
2022-09-16T19:17:00,pth,2.40
2022-09-16T19:19:00,pth,4.80
2022-09-16T19:21:00,pth,4.80
2022-09-16T19:22:00,pth,2.40
2022-09-16T19:24:00,pth,4.80
2022-09-16T19:26:00,pth,6.00
2022-09-16T19:28:00,pth,4.80
2022-09-16T19:29:00,pth,2.40
2022-09-16T19:31:00,pth,2.40
2022-09-16T19:33:00,pth,2.40
2022-09-16T19:34:00,pth,2.40
2022-09-16T19:36:00,pth,2.40
2022-09-16T19:38:00,pth,2.40
2022-09-16T19:40:00,pth,2.40
2022-09-16T19:41:00,pth,1.20
2022-09-16T19:43:00,pth,2.40
2022-09-16T19:44:00,pth,1.20
2022-09-16T19:46:00,pth,3.60
2022-09-16T19:47:00,pth,1.20
2022-09-16T19:48:00,pth,1.20
2022-09-16T19:50:00,pth,2.40
2022-09-16T19:52:00,pth,2.40
2022-09-16T19:53:00,pth,1.20
2022-09-16T19:55:00,pth,3.60
2022-09-16T19:56:00,pth,1.20
2022-09-16T19:58:00,pth,2.40
2022-09-16T19:59:00,pth,1.20
2022-09-16T20:01:00,pth,2.40
2022-09-16T20:03:00,pth,1.20
2022-09-16T20:05:00,pth,4.80
2022-09-16T20:06:00,pth,2.40
2022-09-16T20:08:00,pth,3.60
2022-09-16T20:10:00,pth,3.60
2022-09-16T20:12:00,pth,3.60
2022-09-16T20:13:00,pth,2.40
2022-09-16T20:14:00,pth,2.40
2022-09-16T20:16:00,pth,3.60
2022-09-16T20:17:00,pth,2.40
2022-09-16T20:19:00,pth,4.80
2022-09-16T20:21:00,pth,3.60
2022-09-16T20:22:00,pth,1.20
2022-09-16T20:24:00,pth,3.60
2022-09-16T20:26:00,pth,3.60
2022-09-16T20:28:00,pth,3.60
2022-09-16T20:29:00,pth,2.40
2022-09-16T20:31:00,pth,3.60
2022-09-16T20:32:00,pth,1.20
2022-09-16T20:34:00,pth,3.60
2022-09-16T20:36:00,pth,3.60
2022-09-16T20:38:00,pth,4.80
2022-09-16T20:40:00,pth,3.60
2022-09-16T20:42:00,pth,3.60
2022-09-16T20:44:00,pth,3.60
2022-09-16T20:45:00,pth,2.40
2022-09-16T20:46:00,pth,1.20
2022-09-16T20:48:00,pth,3.60
2022-09-16T20:49:00,pth,2.40
2022-09-16T20:50:00,pth,2.40
2022-09-16T20:52:00,pth,3.60
2022-09-16T20:54:00,pth,3.60
2022-09-16T20:55:00,pth,2.40
2022-09-16T20:57:00,pth,3.60
2022-09-16T20:59:00,pth,4.80
2022-09-16T21:00:00,pth,1.20
2022-09-16T21:02:00,pth,4.80
2022-09-16T21:04:00,pth,3.60
2022-09-16T21:06:00,pth,3.60
2022-09-16T21:08:00,pth,4.80
2022-09-16T21:09:00,pth,1.20
2022-09-16T21:11:00,pth,3.60
2022-09-16T21:13:00,pth,3.60
2022-09-16T21:14:00,pth,2.40
2022-09-16T21:16:00,pth,3.60
2022-09-16T21:18:00,pth,4.80
2022-09-16T21:19:00,pth,2.40
2022-09-16T21:21:00,pth,4.80
2022-09-16T21:22:00,pth,3.60
2022-09-16T21:23:00,pth,2.40
2022-09-16T21:25:00,pth,4.80
2022-09-16T21:27:00,pth,6.00
2022-09-16T21:29:00,pth,3.60
2022-09-16T21:30:00,pth,2.40
2022-09-16T21:32:00,pth,3.60
2022-09-16T21:33:00,pth,1.20
2022-09-16T21:35:00,pth,2.40
2022-09-16T21:36:00,pth,1.20
2022-09-16T21:38:00,pth,3.60
2022-09-16T21:39:00,pth,1.20
2022-09-16T21:41:00,pth,2.40
2022-09-16T21:42:00,pth,1.20
2022-09-16T21:44:00,pth,3.60
2022-09-16T21:46:00,pth,2.40
2022-09-16T21:48:00,pth,2.40
2022-09-16T21:49:00,pth,1.20
2022-09-16T21:51:00,pth,2.40
2022-09-16T21:52:00,pth,1.20
2022-09-16T21:54:00,pth,2.40
2022-09-16T21:55:00,pth,1.20
2022-09-16T21:56:00,pth,1.20
2022-09-16T21:58:00,pth,2.40
2022-09-16T22:00:00,pth,3.60
2022-09-16T22:02:00,pth,3.60
2022-09-16T22:03:00,pth,1.20
2022-09-16T22:05:00,pth,2.40
2022-09-16T22:06:00,pth,2.40
2022-09-16T22:08:00,pth,2.40
2022-09-16T22:10:00,pth,3.60
2022-09-16T22:11:00,pth,1.20
2022-09-16T22:13:00,pth,3.60
2022-09-16T22:14:00,pth,1.20
2022-09-16T22:16:00,pth,3.60
2022-09-16T22:18:00,pth,3.60
2022-09-16T22:20:00,pth,3.60
2022-09-16T22:22:00,pth,2.40
2022-09-16T22:23:00,pth,1.20
2022-09-16T22:25:00,pth,2.40
2022-09-16T22:27:00,pth,3.60
2022-09-16T22:28:00,pth,2.40
2022-09-16T22:29:00,pth,2.40
2022-09-16T22:31:00,pth,4.80
2022-09-16T22:32:00,pth,2.40
2022-09-16T22:34:00,pth,4.80
2022-09-16T22:35:00,pth,1.20
2022-09-16T22:37:00,pth,4.80
2022-09-16T22:38:00,pth,1.20
2022-09-16T22:39:00,pth,2.40
2022-09-16T22:41:00,pth,4.80
2022-09-16T22:43:00,pth,3.60
2022-09-16T22:44:00,pth,2.40
2022-09-16T22:46:00,pth,3.60
2022-09-16T22:48:00,pth,3.60
2022-09-16T22:50:00,pth,4.80
2022-09-16T22:51:00,pth,1.20
2022-09-16T22:53:00,pth,3.60
2022-09-16T22:55:00,pth,2.40
2022-09-16T22:57:00,pth,2.40
2022-09-16T22:59:00,pth,2.40
2022-09-16T23:01:00,pth,2.40
2022-09-16T23:03:00,pth,2.40
2022-09-16T23:04:00,pth,1.20
2022-09-16T23:06:00,pth,1.20
2022-09-16T23:08:00,pth,2.40
2022-09-16T23:09:00,pth,1.20
2022-09-16T23:11:00,pth,2.40